Weather History for New Philadelphia, OH

Change the Weather History Date:

Thursday, March 7, 2013

  Actual Average Record
Temperature  
Mean Temperature 37 °F 36 °F  
Max Temperature 42 °F 47 °F 73 °F (1973)
Min Temperature 31 °F 26 °F 5 °F (2003)
Degree Days  
Heating Degree Days 28 29  
Month to date heating degree days 233 206  
Since 1 July heating degree days 4363 4413  
Cooling Degree Days 0 0  
Month to date cooling degree days 0 0  
Year to date cooling degree days 0 0  
Moisture  
Dew Point 28 °F    
Average Humidity 72    
Maximum Humidity 85    
Minimum Humidity 59    
Precipitation  
Precipitation T in 0.08 in 0.74 in (1991)
Month to date precipitation 0.18 0.61  
Year to date precipitation 3.34 5.57  
Sea Level Pressure  
Sea Level Pressure 30.28 in    
Wind  
Wind Speed 5 mph (NW)    
Max Wind Speed 16 mph    
Max Gust Speed 20 mph    
Visibility 7 miles    
Events Snow    
T = Trace of Precipitation, MM = Missing Value Source: NWS Daily Summary

Daily Weather History Graph

Daily Weather History Graph

Search for Another Location

Airport:

Trip Planner

Search our weather history database for the weather conditions in past years. The results will help you decide how hot, cold, wet, or windy it might be!

Date:

Astronomy

Mar. 07, 2013 Rise Set
Actual Time 6:49 AM EST 6:24 PM EST
Civil Twilight 6:22 AM EST 6:51 PM EST
Nautical Twilight 5:51 AM EST 7:22 PM EST
Astronomical Twilight 5:19 AM EST 7:54 PM EST
Moon 3:49 AM EST (3/7) 2:09 PM EST (3/7)
Length of Visible Light 12h 28m
Length of Day
11h 34m
Waning Crescent, 20% of the Moon is Illuminated
Mar 7
Waning Crescent
Mar 11
New
Mar 19
First Quarter
Mar 27
Full
Apr 3
Last Quarter

Hourly Weather History & Observations

Time (EST) Temp. Windchill Dew Point Humidity Pressure Visibility Wind Dir Wind Speed Gust Speed Precip Events Conditions
12:53 AM 32.0 °F 28.7 °F 26.1 °F 79% 30.19 in 9.0 mi WNW 3.5 mph - N/A   Partly Cloudy
1:53 AM 32.0 °F 26.4 °F 27.0 °F 82% 30.19 in 7.0 mi WNW 5.8 mph - N/A   Overcast
2:53 AM 32.0 °F 26.4 °F 27.0 °F 82% 30.19 in 6.0 mi WNW 5.8 mph - N/A   Haze
3:53 AM 32.0 °F - 28.0 °F 85% 30.19 in 7.0 mi Calm Calm - N/A   Overcast
4:53 AM 32.0 °F 27.5 °F 28.0 °F 85% 30.21 in 8.0 mi WNW 4.6 mph - N/A   Overcast
5:53 AM 33.1 °F 30.0 °F 28.0 °F 82% 30.22 in 8.0 mi WNW 3.5 mph - N/A   Overcast
6:53 AM 33.1 °F 30.0 °F 28.0 °F 82% 30.25 in 8.0 mi WNW 3.5 mph - N/A   Overcast
7:53 AM 33.1 °F 30.0 °F 28.0 °F 82% 30.27 in 5.0 mi WNW 3.5 mph - N/A   Haze
8:04 AM 33.8 °F 29.6 °F 28.4 °F 81% 30.25 in 5.0 mi WNW 4.6 mph - N/A   Haze
8:53 AM 34.0 °F 31.0 °F 28.0 °F 79% 30.28 in 3.0 mi West 3.5 mph - N/A   Haze
9:26 AM 33.8 °F 30.8 °F 28.4 °F 81% 30.26 in 2.5 mi West 3.5 mph - 0.00 in Snow Light Snow
9:48 AM 33.8 °F 29.6 °F 28.4 °F 81% 30.27 in 3.0 mi WNW 4.6 mph - 0.00 in   Haze
9:53 AM 35.1 °F 30.1 °F 30.0 °F 82% 30.30 in 3.0 mi WNW 5.8 mph - 0.00 in   Haze
10:03 AM 35.6 °F 31.7 °F 30.2 °F 81% 30.27 in 3.0 mi WNW 4.6 mph - N/A   Haze
10:41 AM 35.6 °F 30.7 °F 30.2 °F 81% 30.27 in 4.0 mi WNW 5.8 mph - N/A   Haze
10:53 AM 36.0 °F 29.6 °F 28.9 °F 76% 30.30 in 5.0 mi NW 8.1 mph 17.3 mph N/A   Haze
11:30 AM 37.4 °F 30.3 °F 28.4 °F 70% 30.28 in 6.0 mi WNW 10.4 mph - N/A   Haze
11:53 AM 37.0 °F 31.6 °F 28.9 °F 73% 30.30 in 7.0 mi West 6.9 mph - N/A   Overcast
12:53 PM 39.0 °F 32.8 °F 28.9 °F 67% 30.30 in 8.0 mi NW 9.2 mph - N/A   Overcast
1:31 PM 39.2 °F 34.2 °F 28.4 °F 65% 30.26 in 9.0 mi WNW 6.9 mph - N/A   Overcast
1:53 PM 41.0 °F 38.0 °F 28.9 °F 62% 30.28 in 10.0 mi NW 4.6 mph - N/A   Overcast
2:25 PM 41.0 °F 35.8 °F 28.4 °F 61% 30.25 in 10.0 mi NNW 8.1 mph - N/A   Overcast
2:53 PM 39.9 °F 34.5 °F 28.9 °F 65% 30.28 in 10.0 mi WNW 8.1 mph - N/A   Mostly Cloudy
3:53 PM 41.0 °F 37.1 °F 28.0 °F 60% 30.28 in 10.0 mi NNW 5.8 mph - N/A   Overcast
4:53 PM 39.9 °F 33.4 °F 27.0 °F 60% 30.29 in 10.0 mi NNW 10.4 mph - N/A   Overcast
5:53 PM 37.9 °F 33.5 °F 27.0 °F 65% 30.31 in 10.0 mi NNW 5.8 mph - N/A   Clear
6:53 PM 37.0 °F 32.4 °F 26.1 °F 65% 30.32 in 10.0 mi NNW 5.8 mph - N/A   Overcast
7:53 PM 35.1 °F 29.3 °F 26.1 °F 70% 30.34 in 10.0 mi North 6.9 mph - N/A   Overcast
8:53 PM 35.1 °F 30.1 °F 26.1 °F 70% 30.35 in 10.0 mi NNW 5.8 mph - N/A   Overcast
9:53 PM 34.0 °F 31.0 °F 26.1 °F 73% 30.35 in 10.0 mi NNW 3.5 mph - N/A   Overcast
10:28 PM 33.8 °F 28.6 °F 26.6 °F 75% 30.33 in 10.0 mi NW 5.8 mph - N/A   Overcast
10:53 PM 34.0 °F 29.8 °F 27.0 °F 75% 30.36 in 5.0 mi NW 4.6 mph - 0.00 in Snow Light Snow
11:53 PM 33.1 °F 28.7 °F 28.0 °F 82% 30.36 in 9.0 mi NNW 4.6 mph - 0.00 in   Overcast